Weather History for KELO - January, 2013

Change the Weather History Date:

Tuesday, January 29, 2013

  Actual Average Record
Temperature  
Mean Temperature 24 °F -  
Max Temperature 30 °F 20 °F 71 °F (1999)
Min Temperature 19 °F 1 °F -31 °F (2004)
Degree Days  
Heating Degree Days 40    
Moisture  
Dew Point 24 °F    
Average Humidity 90    
Maximum Humidity 100    
Minimum Humidity 80    
Precipitation  
Precipitation 0.08 in - - ()
Sea Level Pressure  
Sea Level Pressure 29.59 in    
Wind  
Wind Speed 4 mph (NW)    
Max Wind Speed 14 mph    
Max Gust Speed 22 mph    
Visibility 8 miles    
Events Snow    
Averages and records for this station are not official NWS values.
T = Trace of Precipitation, MM = Missing Value Source: NWS Daily Summary

Daily Weather History Graph

Daily Weather History Graph

Search for Another Location

Airport or City:

Trip Planner

Search our weather history database for the weather conditions in past years. The results will help you decide how hot, cold, wet, or windy it might be!

Date:

Astronomy

Jan. 29, 2013 Rise Set
Actual Time 7:37 AM CST 5:03 PM CST
Civil Twilight 7:04 AM CST 5:37 PM CST
Nautical Twilight 6:27 AM CST 6:14 PM CST
Astronomical Twilight 5:50 AM CST 6:50 PM CST
Moon 8:17 PM CST (1/29) 8:19 AM CST (1/29)
Length of Visible Light 10h 32m
Length of Day
9h 25m
Waning Gibbous, 93% of the Moon is Illuminated
Jan 29
Waning Gibbous
Feb 3
Last Quarter
Feb 10
New
Feb 17
First Quarter
Feb 25
Full

Hourly Weather History & Observations

Time (CST) Temp. Windchill Dew Point Humidity Pressure Visibility Wind Dir Wind Speed Gust Speed Precip Events Conditions
12:13 AM 28.4 °F - 26.6 °F 93% 29.67 in 4.0 mi Calm Calm - N/A Snow Light Snow
12:32 AM 28.4 °F - 26.6 °F 93% 29.66 in 3.0 mi Calm Calm - 0.01 in Snow Light Snow
12:53 AM 28.4 °F - 26.6 °F 93% 29.65 in 2.5 mi Calm Calm - 0.03 in Snow Light Snow
1:13 AM 28.4 °F - 26.6 °F 93% 29.63 in 2.0 mi Calm Calm - 0.01 in Snow Light Snow
1:33 AM 28.4 °F 24.6 °F 26.6 °F 93% 29.61 in 7.0 mi ENE 3.5 mph - 0.02 in   Overcast
1:53 AM 28.4 °F 24.6 °F 26.6 °F 93% 29.60 in 7.0 mi ESE 3.5 mph - 0.02 in Snow Light Snow
2:13 AM 28.4 °F 24.6 °F 26.6 °F 93% 29.60 in 2.5 mi ESE 3.5 mph - N/A Snow Light Snow
2:32 AM 28.4 °F 23.3 °F 26.6 °F 93% 29.59 in 2.5 mi ESE 4.6 mph - 0.01 in Snow Light Snow
2:53 AM 28.4 °F - 26.6 °F 93% 29.58 in 4.0 mi Calm Calm - 0.01 in Snow Light Snow
3:13 AM 28.4 °F - 26.6 °F 93% 29.57 in 3.0 mi Calm Calm - N/A Snow Light Snow
3:33 AM 28.4 °F - 26.6 °F 93% 29.56 in 2.5 mi Calm Calm - N/A Snow Light Snow
4:13 AM 28.4 °F - 26.6 °F 93% 29.52 in 3.0 mi Calm Calm - N/A   Overcast
4:33 AM 28.4 °F - 26.6 °F 93% 29.53 in 4.0 mi Calm Calm - N/A Snow Light Snow
4:53 AM 28.4 °F - 26.6 °F 93% 29.52 in 5.0 mi Calm Calm - N/A   Overcast
5:13 AM 28.4 °F - 26.6 °F 93% 29.54 in 5.0 mi Calm Calm - N/A Snow Light Snow
5:33 AM 28.4 °F - 26.6 °F 93% 29.52 in 2.0 mi Calm Calm - N/A Snow Light Snow
5:53 AM 28.4 °F 24.6 °F 26.6 °F 93% 29.52 in 2.0 mi NW 3.5 mph - 0.01 in Snow Light Snow
6:12 AM 28.4 °F 23.3 °F 26.6 °F 93% 29.52 in 1.2 mi NW 4.6 mph - N/A Snow Light Snow
6:33 AM 28.4 °F 24.6 °F 26.6 °F 93% 29.51 in 1.5 mi NNW 3.5 mph - 0.01 in Snow Light Snow
6:53 AM 28.4 °F 23.3 °F 26.6 °F 93% 29.50 in 1.8 mi NW 4.6 mph - 0.01 in Snow Light Snow
7:12 AM 28.4 °F 23.3 °F 26.6 °F 93% 29.50 in 3.0 mi NW 4.6 mph - N/A Snow Light Snow
7:33 AM 28.4 °F 24.6 °F 26.6 °F 93% 29.51 in 7.0 mi NW 3.5 mph - N/A Snow Light Snow
7:53 AM 28.4 °F 24.6 °F 26.6 °F 93% 29.50 in 5.0 mi NW 3.5 mph - N/A Snow Light Snow
8:12 AM 28.4 °F - 26.6 °F 93% 29.50 in 5.0 mi Calm Calm - N/A   Overcast
8:33 AM 28.4 °F - 26.6 °F 93% 29.48 in 10.0 mi Calm Calm - N/A   Overcast
8:53 AM 28.4 °F - 26.6 °F 93% 29.50 in 10.0 mi Calm Calm - N/A   Overcast
9:13 AM 28.4 °F 23.3 °F 26.6 °F 93% 29.51 in 10.0 mi NW 4.6 mph - N/A   Overcast
9:33 AM 28.4 °F 23.3 °F 28.4 °F 100% 29.51 in 10.0 mi NW 4.6 mph - N/A   Overcast
9:53 AM 30.2 °F 25.4 °F 28.4 °F 93% 29.51 in 10.0 mi NNW 4.6 mph - N/A   Overcast
10:12 AM 30.2 °F 21.9 °F 28.4 °F 93% 29.51 in 10.0 mi NW 9.2 mph - N/A   Overcast
10:33 AM 30.2 °F 22.6 °F 28.4 °F 93% 29.50 in 10.0 mi NW 8.1 mph - N/A   Overcast
10:53 AM 30.2 °F 21.3 °F 26.6 °F 86% 29.53 in 10.0 mi WNW 10.4 mph - N/A   Overcast
11:13 AM 30.2 °F 21.3 °F 28.4 °F 93% 29.54 in 10.0 mi WNW 10.4 mph - N/A   Overcast
11:33 AM 30.2 °F 22.6 °F 28.4 °F 93% 29.53 in 10.0 mi NW 8.1 mph 16.1 mph N/A   Overcast
11:53 AM 30.2 °F 24.3 °F 28.4 °F 93% 29.53 in 10.0 mi NW 5.8 mph - N/A   Overcast
12:13 PM 30.2 °F 22.6 °F 28.4 °F 93% 29.53 in 10.0 mi NW 8.1 mph 16.1 mph N/A   Overcast
12:33 PM 30.2 °F 21.3 °F 26.6 °F 86% 29.54 in 10.0 mi NW 10.4 mph 21.9 mph N/A   Overcast
12:53 PM 30.2 °F 19.8 °F 26.6 °F 86% 29.55 in 10.0 mi NW 13.8 mph 18.4 mph N/A   Overcast
1:13 PM 30.2 °F 21.9 °F 26.6 °F 86% 29.56 in 10.0 mi NW 9.2 mph 18.4 mph N/A   Overcast
1:33 PM 30.2 °F 22.6 °F 26.6 °F 86% 29.56 in 10.0 mi NW 8.1 mph - N/A   Overcast
1:53 PM 30.2 °F 23.4 °F 26.6 °F 86% 29.55 in 10.0 mi NW 6.9 mph - N/A   Overcast
2:13 PM 28.4 °F 19.7 °F 24.8 °F 86% 29.56 in 10.0 mi WNW 9.2 mph - N/A   Overcast
2:33 PM 28.4 °F 19.1 °F 24.8 °F 86% 29.57 in 10.0 mi NW 10.4 mph 20.7 mph N/A   Overcast
2:53 PM 28.4 °F 19.1 °F 24.8 °F 86% 29.59 in 10.0 mi WNW 10.4 mph 17.3 mph N/A   Overcast
3:13 PM 26.6 °F 16.2 °F 23.0 °F 86% 29.59 in 10.0 mi NNW 11.5 mph 19.6 mph N/A   Overcast
3:53 PM 26.6 °F 16.8 °F 21.2 °F 80% 29.61 in 10.0 mi NNW 10.4 mph 17.3 mph N/A   Overcast
4:13 PM 26.6 °F 19.1 °F 21.2 °F 80% 29.62 in 10.0 mi NNW 6.9 mph - N/A   Overcast
4:33 PM 26.6 °F 18.2 °F 21.2 °F 80% 29.63 in 10.0 mi NNW 8.1 mph - N/A   Overcast
4:53 PM 26.6 °F 21.2 °F 21.2 °F 80% 29.63 in 10.0 mi NNW 4.6 mph - N/A   Overcast
5:13 PM 26.6 °F 21.2 °F 21.2 °F 80% 29.64 in 10.0 mi NNW 4.6 mph - N/A   Overcast
5:32 PM 26.6 °F 20.0 °F 23.0 °F 86% 29.65 in 10.0 mi NW 5.8 mph - N/A   Overcast
5:53 PM 26.6 °F 21.2 °F 21.2 °F 80% 29.64 in 10.0 mi NW 4.6 mph - N/A   Overcast
6:13 PM 26.6 °F 21.2 °F 21.2 °F 80% 29.65 in 10.0 mi NW 4.6 mph - N/A   Overcast
6:32 PM 26.6 °F 18.2 °F 21.2 °F 80% 29.64 in 10.0 mi NW 8.1 mph - N/A   Overcast
6:53 PM 24.8 °F 14.0 °F 21.2 °F 86% 29.64 in 10.0 mi NW 11.5 mph 16.1 mph N/A   Overcast
7:13 PM 24.8 °F 15.3 °F 21.2 °F 86% 29.67 in 10.0 mi NW 9.2 mph - N/A   Overcast
7:32 PM 24.8 °F 16.1 °F 21.2 °F 86% 29.67 in 10.0 mi NNW 8.1 mph - N/A   Overcast
7:53 PM 21.2 °F 8.9 °F 19.4 °F 93% 29.67 in 10.0 mi NW 12.7 mph 17.3 mph N/A   Mostly Cloudy
8:12 PM 21.2 °F 10.9 °F 17.6 °F 86% 29.64 in 10.0 mi NW 9.2 mph - N/A   Scattered Clouds
8:33 PM 21.2 °F 12.6 °F 17.6 °F 86% 29.65 in 10.0 mi NW 6.9 mph - N/A   Mostly Cloudy
8:53 PM 21.2 °F 11.7 °F 17.6 °F 86% 29.68 in 10.0 mi NW 8.1 mph - N/A   Overcast
9:12 PM 21.2 °F 10.9 °F 17.6 °F 86% 29.68 in 10.0 mi NW 9.2 mph 17.3 mph N/A   Overcast
9:33 PM 21.2 °F 10.9 °F 17.6 °F 86% 29.69 in 10.0 mi NW 9.2 mph 17.3 mph N/A   Overcast
9:53 PM 21.2 °F 13.6 °F 17.6 °F 86% 29.68 in 10.0 mi NW 5.8 mph - N/A   Overcast
10:12 PM 19.4 °F 9.5 °F 17.6 °F 93% 29.65 in 10.0 mi NW 8.1 mph - N/A Snow Light Snow
10:33 PM 19.4 °F 8.6 °F 17.6 °F 93% 29.64 in 10.0 mi NW 9.2 mph 17.3 mph N/A   Overcast
10:53 PM 19.4 °F 7.9 °F 17.6 °F 93% 29.66 in 10.0 mi NW 10.4 mph - N/A Snow Light Snow
11:12 PM 19.4 °F 11.5 °F 17.6 °F 93% 29.70 in 10.0 mi NW 5.8 mph - N/A   Overcast
11:33 PM 19.4 °F 12.8 °F 17.6 °F 93% 29.70 in 10.0 mi NW 4.6 mph - N/A Snow Light Snow
11:53 PM 19.4 °F 9.5 °F 17.6 °F 93% 29.70 in 10.0 mi NNW 8.1 mph - N/A Snow Light Snow